DW0269 Weather Reports


Display with metric or nautical units.
time (UTC)temp
F
wind
direction
speed
MPH
gust
MPH
rain 1hr
in
rain 24hr
in
rain mn
in
humidity
%
barometer
mb
20260906145150 65 338 0.0 12.0 0.00 0.00 0.00 97 943.9
20260906144649 65 338 0.0 12.0 0.00 0.00 0.00 97 943.9
20260906144148 65 338 0.0 12.0 0.00 0.00 0.00 97 943.9
20260906143131 66 346 0.0 12.0 0.00 0.00 0.00 97 943.7
20260906142113 65 346 0.0 12.0 0.00 0.00 0.00 97 943.9
20260906141612 65 346 0.0 12.0 0.00 0.00 0.00 97 944.0
20260906141111 66 346 0.0 12.0 0.00 0.00 0.00 97 944.0
20260906140610 66 346 0.0 12.0 0.00 0.00 0.00 97 943.9
20260906140108 66 346 0.0 12.0 0.00 0.00 0.00 97 943.7
20260906135051 66 346 0.0 12.0 0.00 0.00 0.00 97 943.7
20260906134034 66 346 0.0 12.0 0.00 0.00 0.00 98 944.1
20260906133532 66 344 0.0 12.0 0.00 0.00 0.00 98 943.9
20260906133031 66 344 0.0 12.0 0.00 0.00 0.00 98 944.1
20260906132530 66 344 0.0 12.0 0.00 0.00 0.00 98 943.9
20260906132028 66 344 0.0 12.0 0.00 0.00 0.00 98 944.0
20260906131527 66 344 0.0 12.0 0.00 0.00 0.00 98 943.6
20260906130510 66 344 0.0 12.0 0.00 0.00 0.00 98 943.8
20260906130009 66 344 0.0 12.0 0.00 0.00 0.00 98 943.7
20260906125508 66 344 0.0 12.0 0.00 0.00 0.00 98 944.0
20260906125007 66 344 0.0 12.0 0.00 0.00 0.00 97 943.7
20260906124506 66 344 0.0 12.0 0.00 0.00 0.00 98 943.9
20260906124004 66 344 0.0 12.0 0.00 0.00 0.00 98 943.9
20260906123503 66 344 0.0 12.0 0.00 0.00 0.00 97 943.7
20260906123001 66 344 0.0 12.0 0.00 0.00 0.00 98 944.0
20260906122500 66 344 0.0 12.0 0.00 0.00 0.00 97 944.0
20260906121959 66 344 0.0 12.0 0.00 0.00 0.00 97 944.1
20260906121458 66 344 0.0 12.0 0.00 0.00 0.00 97 944.1
20260906120957 66 344 0.0 12.0 0.00 0.00 0.00 97 944.1
20260906120456 66 344 0.0 12.0 0.00 0.00 0.00 97 944.0
20260906115955 66 344 0.0 12.0 0.00 0.00 0.00 97 944.1
20260906115454 66 344 0.0 12.0 0.00 0.00 0.00 97 944.4
20260906114952 66 344 0.0 12.0 0.00 0.00 0.00 97 944.0
20260906114451 66 344 0.0 12.0 0.00 0.00 0.00 97 944.0
20260906113950 66 344 0.0 12.0 0.00 0.00 0.00 97 944.2
20260906113449 66 344 0.0 12.0 0.00 0.00 0.00 97 944.3
20260906112948 66 344 0.0 12.0 0.00 0.00 0.00 97 944.3
20260906112447 66 344 0.0 12.0 0.00 0.00 0.00 97 944.5
20260906111946 66 344 0.0 12.0 0.00 0.00 0.00 97 944.5
20260906111445 66 333 0.0 12.0 0.00 0.00 0.00 98 944.5
20260906110944 66 342 0.0 12.0 0.00 0.00 0.00 97 944.5
20260906110442 66 336 0.0 12.0 0.00 0.00 0.00 98 944.2
20260906105425 66 2 0.0 12.0 0.00 0.00 0.00 97 944.0
20260906104924 67 2 0.0 12.0 0.00 0.00 0.00 97 944.1
20260906104423 67 2 0.0 12.0 0.00 0.00 0.00 98 943.9
20260906103922 67 2 0.0 12.0 0.00 0.00 0.00 98 944.7
20260906103421 67 2 0.0 12.0 0.00 0.00 0.00 98 944.3
20260906102920 67 2 0.0 12.0 0.00 0.00 0.00 97 944.3
20260906102419 68 2 0.0 12.0 0.00 0.00 0.00 97 944.5
20260906101918 68 2 0.0 12.0 0.00 0.00 0.00 97 944.5
20260906101417 69 2 0.0 12.0 0.00 0.00 0.00 98 944.8
20260906100917 69 2 0.0 12.0 0.00 0.00 0.00 98 944.7
20260906100415 69 2 0.0 12.0 0.00 0.00 0.00 98 944.8
20260906095914 69 2 0.0 12.0 0.00 0.00 0.00 98 944.5
20260906094857 69 2 0.0 12.0 0.00 0.00 0.00 98 944.9
20260906094356 69 2 0.0 12.0 0.00 0.00 0.00 98 945.0
20260906093855 69 2 0.0 12.0 0.00 0.00 0.00 98 944.9
20260906093354 69 2 0.0 12.0 0.00 0.00 0.00 98 944.9
20260906092854 69 2 0.0 12.0 0.00 0.00 0.00 98 944.9
20260906092352 69 2 0.0 12.0 0.00 0.00 0.00 98 945.2
20260906091852 69 2 0.0 12.0 0.00 0.00 0.00 98 945.3
20260906091351 69 2 0.0 12.0 0.00 0.00 0.00 98 945.0
20260906090334 69 2 0.0 12.0 0.00 0.00 0.00 98 945.5
20260906085833 69 2 0.0 12.0 0.00 0.00 0.00 97 945.3
20260906084815 69 2 0.0 12.0 0.00 0.00 0.00 97 945.4
20260906084315 69 2 0.0 12.0 0.00 0.00 0.00 97 945.2
20260906083813 69 2 0.0 12.0 0.00 0.00 0.00 96 945.1
20260906083313 69 2 0.0 12.0 0.00 0.00 0.00 96 945.0
20260906082811 69 308 0.0 12.0 0.00 0.00 0.00 96 945.5
20260906082311 69 297 0.0 12.0 0.00 0.00 0.00 96 945.8
20260906081809 70 270 2.0 12.0 0.00 0.00 0.00 95 945.7
20260906081307 70 269 2.0 12.0 0.00 0.00 0.00 96 945.7
20260906080806 70 31 0.0 12.0 0.00 0.00 0.00 96 945.4
20260906080305 70 329 0.0 12.0 0.00 0.00 0.00 96 945.5
20260906075804 70 297 0.0 12.0 0.00 0.00 0.00 96 945.6
20260906075306 70 112 1.0 12.0 0.00 0.00 0.00 95 945.5
20260906074803 70 143 0.0 12.0 0.00 0.00 0.00 95 945.1
20260906074302 70 113 0.0 12.0 0.00 0.00 0.00 95 945.2
20260906073245 70 10 0.0 12.0 0.00 0.00 0.00 95 945.7
20260906072744 70 275 5.0 12.0 0.00 0.00 0.00 96 945.0
20260906072242 70 296 3.0 12.0 0.00 0.00 0.00 96 945.3
20260906071741 70 40 1.0 12.0 0.00 0.00 0.00 96 945.3
20260906071240 70 33 2.0 12.0 0.00 0.00 0.00 96 945.2
20260906070740 70 33 4.0 12.0 0.00 0.00 0.00 96 944.8
20260906065722 70 37 3.0 12.0 0.00 0.00 0.00 97 944.6
20260906065221 70 34 4.0 12.0 0.00 0.00 0.00 97 944.3
20260906064204 70 45 5.0 12.0 0.00 0.00 0.00 96 944.5
20260906063703 70 50 4.0 12.0 0.00 0.00 0.00 96 944.2
20260906063202 70 52 3.0 12.0 0.00 0.00 0.00 96 944.2
20260906062701 70 54 4.0 12.0 0.00 0.00 0.00 97 944.1
20260906062200 70 52 4.0 12.0 0.00 0.00 0.00 96 944.0
20260906061659 70 52 5.0 12.0 0.00 0.00 0.00 96 944.2
20260906061158 70 47 4.0 12.0 0.00 0.00 0.00 96 943.9
20260906060657 70 61 1.0 12.0 0.00 0.00 0.00 96 944.1
20260906060156 70 75 4.0 12.0 0.00 0.00 0.00 96 944.5
20260906055655 70 98 4.0 12.0 0.00 0.00 0.00 96 944.2
20260906054638 70 79 4.0 12.0 0.00 0.00 0.00 96 944.0
20260906054137 70 94 4.0 12.0 0.00 0.00 0.00 96 944.0
20260906053636 70 99 4.0 12.0 0.00 0.00 0.00 96 944.0
20260906053135 70 94 4.0 12.0 0.00 0.00 0.00 96 943.7
20260906052634 70 83 2.0 12.0 0.00 0.00 0.00 96 943.8
20260906052133 70 81 3.0 12.0 0.00 0.00 0.00 96 943.8
20260906051632 70 87 3.0 12.0 0.00 0.00 0.00 96 943.8
20260906051131 70 102 2.0 12.0 0.00 0.00 0.00 96 943.8
20260906050630 70 101 1.0 12.0 0.00 0.00 0.00 96 943.9
20260906045613 70 80 2.0 12.0 0.00 0.00 0.00 95 943.8
20260906044556 70 6 0.0 12.0 0.00 0.00 0.00 95 943.7
20260906044055 70 354 0.0 12.0 0.00 0.00 0.00 95 944.0
20260906043038 70 70 0.0 12.0 0.00 0.00 0.00 94 944.1
20260906042537 70 54 1.0 12.0 0.00 0.00 0.00 94 943.8
20260906042036 71 233 1.0 12.0 0.00 0.00 0.00 94 943.9
20260906041535 71 336 2.0 12.0 0.00 0.00 0.00 94 943.9
20260906041034 71 286 0.0 12.0 0.00 0.00 0.00 94 944.2
20260906040533 72 261 0.0 12.0 0.00 0.00 0.00 94 943.8
20260906040032 72 261 0.0 12.0 0.00 0.00 0.00 94 943.9
20260906035015 72 289 1.0 12.0 0.00 0.00 0.00 93 943.7
20260906034514 72 256 0.0 12.0 0.00 0.00 0.00 93 943.6
20260906033457 72 340 0.0 12.0 0.00 0.00 0.00 90 943.8
20260906032439 73 7 1.0 12.0 0.00 0.00 0.00 89 943.6
20260906031938 73 346 0.0 12.0 0.00 0.00 0.00 90 943.7
20260906031436 73 334 0.0 12.0 0.00 0.00 0.00 90 943.9
20260906030935 73 82 1.0 12.0 0.00 0.00 0.00 89 943.6
20260906030434 73 32 1.0 12.0 0.00 0.00 0.00 89 943.5
20260906025932 74 62 3.0 12.0 0.00 0.00 0.00 88 943.5
20260906025431 74 115 2.0 12.0 0.00 0.00 0.00 88 943.6
20260906024930 74 140 4.0 12.0 0.00 0.00 0.00 88 943.7
20260906024429 74 169 2.0 12.0 0.00 0.00 0.00 87 943.6
20260906023928 74 158 1.0 12.0 0.00 0.00 0.00 88 943.5
20260906023427 74 154 1.0 12.0 0.00 0.00 0.00 89 943.5
20260906022926 74 180 0.0 12.0 0.00 0.00 0.00 89 943.4
20260906022425 74 43 2.0 12.0 0.00 0.00 0.00 88 943.6
20260906021924 74 77 2.0 12.0 0.00 0.00 0.00 89 943.3
20260906021423 74 107 2.0 12.0 0.00 0.00 0.00 90 943.3
20260906020922 74 45 0.0 12.0 0.00 0.00 0.00 92 943.5
20260906020421 74 266 2.0 12.0 0.00 0.00 0.00 92 943.5
20260906015920 74 283 3.0 12.0 0.00 0.00 0.00 92 943.7
20260906015418 75 208 2.0 12.0 0.00 0.00 0.00 92 943.8
20260906014917 74 238 3.0 12.0 0.00 0.00 0.00 92 943.8
20260906014416 75 275 0.0 12.0 0.00 0.00 0.00 91 943.8
20260906013915 75 272 2.0 12.0 0.00 0.00 0.00 90 943.9
20260906013414 75 322 0.0 12.0 0.00 0.00 0.00 88 944.0
20260906012913 75 46 1.0 12.0 0.00 0.00 0.00 87 943.9
20260906012412 76 93 1.0 12.0 0.00 0.00 0.00 87 943.6
20260906011911 76 67 2.0 12.0 0.00 0.00 0.00 86 943.7
20260906011410 76 76 2.0 12.0 0.00 0.00 0.00 87 943.7
20260906010909 76 108 4.0 12.0 0.00 0.00 0.00 85 943.8
20260906010408 76 75 2.0 12.0 0.00 0.00 0.00 86 943.6
20260906005907 76 110 2.0 12.0 0.00 0.00 0.00 86 943.9
20260906005406 76 96 3.0 12.0 0.00 0.00 0.00 88 943.9
20260906004905 75 94 1.0 12.0 0.00 0.00 0.00 88 943.8
20260906004404 75 118 3.0 12.0 0.00 0.00 0.00 90 944.1
20260906003903 75 102 3.0 12.0 0.00 0.00 0.00 92 943.9
20260906003402 74 357 1.0 12.0 0.00 0.00 0.00 91 944.0
20260906002901 74 173 3.0 12.0 0.00 0.00 0.00 92 944.0
20260906002400 75 247 3.0 12.0 0.00 0.00 0.00 90 944.4
20260906001859 76 244 3.0 12.0 0.00 0.00 0.00 90 944.2
20260906001358 76 154 3.0 12.0 0.00 0.00 0.00 87 944.1
20260906000857 77 129 0.0 12.0 0.00 0.00 0.00 86 944.2
20260906000356 78 214 3.0 12.0 0.00 0.00 0.00 84 944.3
20260905235855 78 270 0.0 12.0 0.00 0.00 0.00 84 944.5
20260905235354 78 357 2.0 12.0 0.00 0.00 0.00 79 944.3
20260905234853 79 286 1.0 12.0 0.00 0.00 0.00 79 944.5
20260905234352 80 56 1.0 12.0 0.00 0.00 0.00 78 944.5
20260905233851 80 65 2.0 12.0 0.00 0.00 0.00 81 944.5
20260905233350 79 61 2.0 12.0 0.00 0.00 0.00 82 944.8
20260905232848 79 83 5.0 12.0 0.00 0.00 0.00 81 944.6
20260905232347 79 53 4.0 12.0 0.00 0.00 0.00 82 944.9
20260905231846 79 107 4.0 12.0 0.00 0.00 0.00 83 944.8
20260905231345 78 74 0.0 12.0 0.00 0.00 0.00 85 944.9
20260905230844 78 119 6.0 12.0 0.00 0.00 0.00 83 944.8
20260905230343 78 165 3.0 12.0 0.00 0.00 0.00 82 944.9
20260905225842 78 146 3.0 12.0 0.00 0.00 0.00 80 945.1
20260905225341 79 142 2.0 12.0 0.00 0.00 0.00 82 945.4
20260905224840 80 103 3.0 12.0 0.00 0.00 0.00 78 945.6
20260905224339 80 59 2.0 12.0 0.00 0.00 0.00 78 945.6
20260905223321 80 35 3.0 12.0 0.00 0.00 0.00 80 945.5
20260905222306 80 61 3.0 11.0 0.00 0.00 0.00 78 945.7
20260905221803 80 66 3.0 11.0 0.00 0.00 0.00 81 945.5
20260905221301 79 83 5.0 11.0 0.00 0.00 0.00 81 945.8
20260905220800 79 69 4.0 11.0 0.00 0.00 0.00 81 945.6
20260905215743 79 76 2.0 12.0 0.00 0.00 0.00 84 945.5
20260905215242 79 59 3.0 12.0 0.00 0.00 0.00 81 945.5
20260905214741 79 50 3.0 12.0 0.00 0.00 0.00 83 945.6
20260905214240 79 38 4.0 12.0 0.00 0.00 0.00 81 945.5
20260905213739 78 64 3.0 12.0 0.00 0.00 0.00 81 945.5
20260905212206 78 70 4.0 11.0 0.00 0.00 0.00 81 945.6
20260905211705 78 41 4.0 11.0 0.00 0.00 0.00 83 945.8
20260905211205 78 38 3.0 11.0 0.00 0.00 0.00 82 945.5
20260905210703 77 72 3.0 11.0 0.00 0.00 0.00 83 945.6
20260905210202 77 57 5.0 12.0 0.00 0.00 0.00 82 945.4
20260905205145 77 50 6.0 12.0 0.00 0.00 0.00 81 945.5
20260905204644 76 47 7.0 13.0 0.00 0.00 0.00 81 945.5
20260905203626 76 41 6.0 12.0 0.00 0.00 0.00 80 945.2
20260905203125 76 44 5.0 13.0 0.00 0.00 0.00 82 945.1
20260905202624 76 44 5.0 13.0 0.00 0.00 0.00 84 945.4
20260905202123 75 55 6.0 14.0 0.00 0.00 0.00 83 945.3
20260905201622 75 43 6.0 14.0 0.00 0.00 0.00 81 945.4
20260905201121 75 41 6.0 12.0 0.00 0.00 0.00 82 945.2
20260905200620 75 46 7.0 12.0 0.00 0.00 0.00 81 945.1
20260905200120 75 47 5.0 13.0 0.00 0.00 0.00 83 945.3
20260905195618 75 41 7.0 13.0 0.00 0.00 0.00 82 945.3
20260905195117 74 40 6.0 13.0 0.00 0.00 0.00 82 945.1
20260905194616 74 39 6.0 13.0 0.00 0.00 0.00 83 945.3
20260905194115 74 42 5.0 13.0 0.00 0.00 0.00 83 945.3
20260905193614 74 33 6.0 13.0 0.00 0.00 0.00 82 945.1
20260905193113 74 52 5.0 13.0 0.00 0.00 0.00 82 945.5
20260905192613 74 33 6.0 15.0 0.00 0.00 0.00 83 945.1
20260905192110 74 42 6.0 15.0 0.00 0.00 0.00 82 945.1
20260905191610 74 41 6.0 15.0 0.00 0.00 0.00 81 945.4
20260905191108 73 41 6.0 13.0 0.00 0.00 0.00 83 945.4
20260905190607 73 44 7.0 15.0 0.00 0.00 0.00 83 944.9
20260905190105 73 40 8.0 15.0 0.00 0.00 0.00 81 944.8
20260905185604 73 41 7.0 15.0 0.00 0.00 0.00 82 945.3
20260905184031 72 41 4.0 13.0 0.00 0.00 0.00 83 945.1
20260905183530 72 48 6.0 13.0 0.00 0.00 0.00 83 945.0
20260905182512 71 43 6.0 14.0 0.00 0.00 0.00 83 944.8
20260905182011 71 44 6.0 14.0 0.00 0.00 0.00 84 944.7
20260905181510 71 40 6.0 13.0 0.00 0.00 0.00 85 944.8
20260905181009 71 43 6.0 13.0 0.00 0.00 0.00 85 944.5
20260905180508 70 45 7.0 13.0 0.00 0.00 0.00 85 944.9
20260905175450 70 45 6.0 13.0 0.00 0.00 0.00 87 944.7
20260905174949 70 43 6.0 13.0 0.00 0.00 0.00 88 944.5
20260905174448 69 47 4.0 13.0 0.00 0.00 0.00 89 944.8
20260905173947 69 45 6.0 13.0 0.00 0.00 0.00 88 944.6
20260905173446 69 48 5.0 13.0 0.00 0.00 0.00 89 944.6
20260905172945 68 49 5.0 13.0 0.00 0.00 0.00 89 944.7
20260905172443 68 48 6.0 13.0 0.00 0.00 0.00 89 944.3
20260905171943 68 45 6.0 12.0 0.00 0.00 0.00 90 944.9
20260905171442 67 54 5.0 12.0 0.00 0.00 0.00 91 944.4
20260905170941 67 49 5.0 12.0 0.00 0.00 0.00 92 944.3
20260905170440 66 43 5.0 12.0 0.00 0.00 0.00 93 944.3
20260905165423 66 46 6.0 12.0 0.00 0.00 0.00 94 944.4
20260905164922 65 47 5.0 12.0 0.00 0.00 0.00 94 944.4
20260905164420 65 49 5.0 12.0 0.00 0.00 0.00 94 944.4
20260905162847 65 38 5.0 12.0 0.00 0.00 0.00 93 944.3
20260905162346 65 45 5.0 12.0 0.00 0.00 0.00 92 943.9
20260905161845 65 43 6.0 12.0 0.00 0.00 0.00 92 944.1
20260905161344 65 36 6.0 12.0 0.00 0.00 0.00 91 944.0
20260905160842 65 51 4.0 12.0 0.00 0.00 0.00 91 944.2
20260905155309 66 47 5.0 12.0 0.00 0.00 0.00 89 943.8
20260905154808 66 49 4.0 12.0 0.00 0.00 0.00 88 944.0
20260905153751 66 41 4.0 12.0 0.00 0.00 0.00 88 944.2
20260905153250 66 51 4.0 12.0 0.00 0.00 0.00 88 944.0
20260905152749 66 52 3.0 12.0 0.00 0.00 0.00 88 944.1
20260905152248 66 51 2.0 12.0 0.00 0.00 0.00 88 944.3
20260905151231 66 36 4.0 12.0 0.00 0.00 0.00 89 944.4
20260905150730 65 39 3.0 12.0 0.00 0.00 0.00 89 944.3
20260905150229 65 44 3.0 12.0 0.00 0.00 0.00 88 944.2
20260905145728 66 42 4.0 12.0 0.00 0.00 0.00 88 944.3